Vertical_Velocity
-0 -1 0 1 -0 1 1 2 2 -4 -2 5 2 3 5 1 4 7 6 7 3 1
1 -2 0 2 -1 0 2 3 3 1 -3 1 2 -1 4 4 2 6 4 7 10 10
0 -0 -0 -2 -2 -1 2 3 2 1 -4 -2 2 -1 -1 1 3 4 5 -1 -1 -9
-2 -1 -3 -1 0 -1 -0 -2 -1 0 1 -1 -3 1 5 5 5 3 1 3 4 -3
-1 -1 -2 -1 -1 -3 -0 0 0 -1 2 2 3 -1 -2 4 7 0 5 4 3 7
-1 -1 0 -1 1 -1 1 -1 -1 -2 -3 -2 2 -0 3 -0 -3 -4 -4 0 3 7
1 -1 1 1 -2 -1 0 -1 -3 -2 -3 -3 -0 -2 -5 -1 -2 -2 -3 1 5 8
-0 2 -1 -0 -1 -1 -1 -4 -3 -2 -2 -4 -2 -1 -1 -0 2 2 2 3 -8 -12
1 -2 -2 -0 -1 -0 -2 -2 -1 -2 -1 -2 -5 -0 -1 1 -2 1 -2 10 2 1
-2 -0 -1 0 -3 -0 1 -1 -2 -4 -3 -3 -3 -3 -1 -1 -1 -0 -2 1 6 6
-2 -1 -1 -1 0 -0 -1 -2 -2 -3 -4 -3 -4 -2 -2 1 -1 -3 1 -1 1 -2
-1 -2 -2 1 0 -2 -1 -2 -3 -4 -4 -4 -3 -1 0 -0 -4 -2 -2 -3 -1 -0
-1 -2 -2 -2 -2 -2 -2 -1 -2 -4 -2 -1 -1 -2 -2 -1 -2 1 0 0 -1 -1
-2 -3 -3 -2 -2 -1 0 -2 -2 -1 -1 -1 -1 -2 -2 -1 -0 -2 -2 -2 -1 -2
Height
3085 3083 3084 3084 3084 3084 3084 3083 3082 3081 3081 3081 3082 3082 3082 3081 3080 3081 3080 3079 3080 3081
3075 3074 3074 3074 3073 3074 3074 3073 3073 3073 3070 3072 3072 3072 3071 3070 3070 3069 3069 3069 3070 3069
3065 3065 3065 3064 3063 3064 3065 3064 3064 3064 3064 3061 3062 3062 3062 3061 3060 3059 3058 3057 3058 3059
3058 3057 3057 3056 3057 3056 3056 3056 3056 3055 3054 3052 3051 3051 3052 3051 3051 3050 3049 3049 3048 3048
3052 3052 3051 3050 3050 3050 3049 3047 3047 3045 3044 3043 3041 3040 3041 3041 3040 3039 3039 3039 3039 3037
3046 3046 3045 3044 3043 3042 3041 3040 3039 3038 3037 3034 3033 3032 3032 3032 3030 3029 3028 3027 3028 3028
3041 3040 3039 3038 3037 3036 3035 3033 3032 3031 3030 3027 3024 3023 3024 3022 3021 3021 3019 3013 3014 3016
3034 3033 3032 3032 3030 3029 3029 3028 3026 3025 3023 3021 3017 3017 3017 3016 3014 3013 3011 3009 3008 3009
3028 3027 3026 3025 3023 3024 3024 3023 3021 3019 3016 3015 3013 3010 3010 3010 3008 3005 3004 3003 3003 3002
3024 3023 3022 3021 3020 3020 3020 3017 3015 3013 3011 3009 3007 3006 3004 3004 3001 3002 2999 2999 2998 2997
3022 3020 3019 3018 3018 3017 3016 3013 3012 3009 3007 3005 3003 3003 3002 3003 3002 3000 2998 2997 2996 2996
3021 3019 3017 3017 3016 3014 3013 3011 3010 3008 3006 3004 3004 3004 3002 3001 2999 2998 2997 2996 2995 2994
3022 3020 3019 3018 3016 3015 3014 3013 3013 3011 3010 3008 3007 3006 3004 3001 2999 2998 2996 2995 2994 2992
3022 3021 3019 3018 3017 3016 3016 3016 3014 3013 3012 3010 3008 3006 3003 3001 2999 2997 2994 2991 2989 2987